CW3185 Errol UK current weather conditions

sailwx.info

Wind from 199 at 5 knots gusting 8

Air temperature 17.2° C
Dewpoint 14.5° C

Last reported at 2019-Aug-23 21:05 UTC.
Time now 2019-Aug-23 22:10 UTC

Location: N 56°23' W 003°16'.
View on Google Maps.

See reports from other nearby stations

  
Tides and Currents Weather Stations Pressure Air Temp Water Temp Dewpoint Dewpoint Depression Visibility Wind Speed Wind Dir Waves Ship Positions
date/time (UTC)wind fromknots sea level pressurealtimeterstation pressurevisibilityair tempwater tempwave heightnotes
2019-Aug-23 21:05 199 5 gusting 8 17.2
2019-Aug-23 21:00 202 6 gusting 10 17.2
2019-Aug-23 20:35 204 5 gusting 6 16.7
2019-Aug-23 20:30 209 3 gusting 6 16.1
2019-Aug-23 20:05 277 16.7
2019-Aug-23 20:00 277 17.2
2019-Aug-23 19:35 277 17.8
2019-Aug-23 19:30 277 17.8
2019-Aug-23 19:05 277 18.3
2019-Aug-23 19:00 277 18.3
2019-Aug-23 18:35 277 18.3
2019-Aug-23 18:30 277 18.3
2019-Aug-23 18:05 277 18.9
2019-Aug-23 18:00 277 18.9
2019-Aug-23 17:35 277 18.9
2019-Aug-23 17:30 277 0 gusting 4 19.4
2019-Aug-23 17:05 267 0 gusting 5 19.4
2019-Aug-23 17:00 285 2 gusting 8 19.4
2019-Aug-23 16:35 274 4 gusting 7 19.4
2019-Aug-23 16:30 283 5 gusting 7 19.4
2019-Aug-23 16:05 266 3 gusting 6 20.0
2019-Aug-23 16:00 265 2 gusting 10 20.0
2019-Aug-23 15:35 248 6 gusting 10 20.0
2019-Aug-23 15:30 250 5 gusting 13 20.0
2019-Aug-23 15:05 232 6 gusting 11 20.6
2019-Aug-23 15:00 256 6 gusting 14 20.6
2019-Aug-23 14:35 254 7 gusting 13 20.6
2019-Aug-23 14:30 258 6 gusting 15 20.6
2019-Aug-23 14:05 252 9 gusting 17 21.1
2019-Aug-23 14:00 265 9 gusting 20 20.6
2019-Aug-23 13:35 251 7 gusting 18 20.6
2019-Aug-23 13:30 246 7 gusting 19 20.6
2019-Aug-23 13:05 259 7 gusting 17 20.0
2019-Aug-23 13:00 247 11 gusting 30 20.0
2019-Aug-23 12:35 222 19 gusting 26 20.0
2019-Aug-23 12:30 230 19 gusting 30 20.6
2019-Aug-23 12:05 227 13 gusting 20 21.7
2019-Aug-23 12:00 214 16 gusting 22 21.1
2019-Aug-23 11:35 241 11 gusting 14 18.9
2019-Aug-23 11:30 258 10 gusting 21 18.9
2019-Aug-23 11:05 216 17 gusting 20 20.6
2019-Aug-23 11:00 228 9 gusting 19 19.4
2019-Aug-23 10:35 226 10 gusting 19 20.6
2019-Aug-23 10:30 228 12 gusting 19 20.0
2019-Aug-23 10:05 232 11 gusting 13 18.9
2019-Aug-23 10:00 244 9 gusting 21 18.9
2019-Aug-23 09:35 235 13 gusting 24 19.4
2019-Aug-23 09:30 249 15 gusting 25 19.4
2019-Aug-23 09:05 235 15 gusting 20 18.9
2019-Aug-23 09:00 235 15 gusting 21 18.9
2019-Aug-23 08:35 246 7 gusting 13 18.3
2019-Aug-23 08:30 240 10 gusting 17 17.8
2019-Aug-23 08:05 246 6 gusting 12 17.8
2019-Aug-23 08:00 267 8 gusting 18 18.3
2019-Aug-23 07:35 243 7 gusting 15 17.2
2019-Aug-23 07:30 241 11 gusting 20 17.2
2019-Aug-23 07:05 237 10 gusting 17 16.7
2019-Aug-23 07:00 239 9 gusting 18 16.7
2019-Aug-23 06:35 236 10 gusting 17 16.7
2019-Aug-23 06:30 236 6 gusting 12 16.1
2019-Aug-23 06:05 225 2 gusting 6 15.6
2019-Aug-23 06:00 254 1 gusting 10 15.6
2019-Aug-23 05:35 263 5 gusting 12 16.1
2019-Aug-23 05:30 240 5 gusting 13 16.1
2019-Aug-23 05:05 256 7 gusting 11 16.1
2019-Aug-23 05:00 249 7 gusting 14 15.6
2019-Aug-23 04:35 224 6 gusting 12 16.1
2019-Aug-23 04:30 233 10 gusting 19 16.7
2019-Aug-23 04:05 229 6 gusting 10 16.1
2019-Aug-23 04:00 225 10 gusting 20 16.7
2019-Aug-23 03:35 234 13 gusting 20 16.7
2019-Aug-23 03:30 227 13 gusting 27 16.7
2019-Aug-23 03:05 231 18 gusting 26 16.7
2019-Aug-23 03:00 238 13 gusting 25 16.7
2019-Aug-23 02:35 229 13 gusting 18 16.7
2019-Aug-23 02:30 224 8 gusting 18 16.7
2019-Aug-23 02:05 245 10 gusting 17 16.7
2019-Aug-23 02:00 227 11 gusting 19 16.7
2019-Aug-23 01:35 220 10 gusting 15 16.7
2019-Aug-23 01:30 214 10 gusting 18 16.7
2019-Aug-23 01:05 223 10 gusting 15 16.7
2019-Aug-23 01:00 219 10 gusting 17 16.7
2019-Aug-23 00:35 200 5 gusting 7 16.7
2019-Aug-23 00:30 210 6 gusting 20 17.2
2019-Aug-23 00:05 233 16 gusting 22 17.2
2019-Aug-23 00:00 238 10 gusting 19 17.2
2019-Aug-22 23:35 223 11 gusting 19 16.7
2019-Aug-22 23:30 225 11 gusting 18 16.7
2019-Aug-22 23:05 229 9 gusting 13 16.7
2019-Aug-22 23:00 223 6 gusting 19 16.7
2019-Aug-22 22:35 231 10 gusting 19 16.7
2019-Aug-22 22:30 239 9 gusting 17 16.7
2019-Aug-22 22:05 231 7 gusting 13 16.7
2019-Aug-22 22:00 226 5 gusting 13 16.7
2019-Aug-22 21:35 230 5 gusting 10 16.7
2019-Aug-22 21:30 228 6 gusting 14 16.7
2019-Aug-22 21:05 268 5 gusting 10 16.7
2019-Aug-22 21:00 246 4 gusting 13 16.7
2019-Aug-22 20:35 242 6 gusting 13 16.7
2019-Aug-22 20:30 241 7 gusting 14 16.7
2019-Aug-22 20:05 249 6 gusting 13 16.1
2019-Aug-22 20:00 250 6 gusting 11 16.1
2019-Aug-22 19:35 250 8 gusting 13 16.7
2019-Aug-22 19:30 249 6 gusting 13 16.7
2019-Aug-22 19:05 244 7 gusting 15 16.7
2019-Aug-22 19:00 263 6 gusting 13 17.2
2019-Aug-22 18:35 263 7 gusting 11 17.2
2019-Aug-22 18:30 265 6 gusting 13 17.2
2019-Aug-22 18:05 267 7 gusting 13 17.2
2019-Aug-22 18:00 271 8 gusting 14 17.8
2019-Aug-22 17:35 221 10 gusting 14 17.8
2019-Aug-22 17:30 220 7 gusting 19 17.8
2019-Aug-22 17:05 243 14 gusting 19 17.8
2019-Aug-22 17:00 234 15 gusting 22 17.8
2019-Aug-22 16:35 214 12 gusting 19 17.8
2019-Aug-22 16:30 215 13 gusting 24 17.8
2019-Aug-22 16:05 213 13 gusting 21 17.8
2019-Aug-22 16:00 214 15 gusting 22 17.8
2019-Aug-22 15:35 209 10 gusting 14 16.7
2019-Aug-22 15:30 216 11 gusting 19 16.7
2019-Aug-22 15:05 212 15 gusting 22 16.7
2019-Aug-22 15:00 213 11 gusting 19 16.7
2019-Aug-22 14:35 214 12 gusting 18 17.2
2019-Aug-22 14:30 221 13 gusting 22 17.2
2019-Aug-22 14:05 225 12 gusting 21 17.2
2019-Aug-22 14:00 212 14 gusting 33 17.2
2019-Aug-22 13:35 228 18 gusting 24 17.8
2019-Aug-22 13:30 230 19 gusting 32 17.8
2019-Aug-22 13:05 241 15 gusting 22 18.3
2019-Aug-22 13:00 230 19 gusting 31 18.3
2019-Aug-22 12:35 230 19 gusting 24 18.3
2019-Aug-22 12:30 224 15 gusting 28 18.3
2019-Aug-22 12:05 218 18 gusting 26 19.4
2019-Aug-22 12:00 225 17 gusting 27 20.0
2019-Aug-22 11:35 219 19 gusting 26 18.9
2019-Aug-22 11:30 230 14 gusting 26 19.4
2019-Aug-22 11:05 229 13 gusting 19 17.8
2019-Aug-22 11:00 215 14 gusting 24 18.3
2019-Aug-22 10:35 215 16 gusting 22 18.3
2019-Aug-22 10:30 229 15 gusting 22 17.8
2019-Aug-22 10:05 218 11 gusting 17 17.2
2019-Aug-22 10:00 216 12 gusting 19 17.2
2019-Aug-22 09:35 220 13 gusting 21 17.2
2019-Aug-22 09:30 222 11 gusting 19 17.2
2019-Aug-22 09:05 215 15 gusting 22 16.1
2019-Aug-22 09:00 216 11 gusting 21 16.1
2019-Aug-22 08:35 218 13 gusting 19 15.6
2019-Aug-22 08:30 222 10 gusting 17 15.6
2019-Aug-22 08:05 212 10 gusting 13 15.0
2019-Aug-22 08:00 215 9 gusting 17 14.4
2019-Aug-22 07:35 031 0 gusting 2 13.3
2019-Aug-22 07:30 030 0 gusting 2 13.3
2019-Aug-22 07:05 030 12.2
2019-Aug-22 07:00 030 11.7
2019-Aug-22 06:35 031 1 gusting 2 10.0
2019-Aug-22 06:30 030 1 gusting 4 10.0
2019-Aug-22 06:05 042 0 gusting 1 8.9
2019-Aug-22 06:00 042 2 gusting 4 8.9
2019-Aug-22 05:35 046 8.9
2019-Aug-22 05:30 046 1 gusting 5 8.9
2019-Aug-22 05:05 12.8
2019-Aug-22 05:00 12.8
2019-Aug-22 04:35 12.8
2019-Aug-22 04:30 12.8
2019-Aug-22 04:05 12.8
2019-Aug-22 04:00 12.8
2019-Aug-22 03:35 12.8
2019-Aug-22 03:30 12.8
2019-Aug-22 03:05 12.8
2019-Aug-22 03:00 12.8
2019-Aug-22 02:35 12.8
2019-Aug-22 02:30 12.8
2019-Aug-22 02:05 12.8
2019-Aug-22 02:00 12.8
2019-Aug-22 01:35 12.8
2019-Aug-22 01:30 12.8
2019-Aug-22 01:05 12.8
2019-Aug-22 01:00 12.8
2019-Aug-22 00:35 12.8
2019-Aug-22 00:30 12.8
2019-Aug-22 00:05 12.8
2019-Aug-22 00:00 12.8
2019-Aug-21 23:35 12.8
2019-Aug-21 23:30 12.8
2019-Aug-21 23:05 12.8
2019-Aug-21 23:00 12.8
2019-Aug-21 22:35 267 2 gusting 2 12.8
2019-Aug-21 22:30 267 2 gusting 5 12.8
2019-Aug-21 22:05 265 4 gusting 6 12.8
2019-Aug-21 22:00 244 4 gusting 10 12.8